This is the latest recevied weather packets stored in our database for station/object VR2R-13. If no packets are shown the sender has not sent any weather packets the latest 10 day(s).
| Time | Temp. | Humidity | Pressure | Rain* | Wind** | Luminosity | Snow |
|---|---|---|---|---|---|---|---|
| 1778268499 | 17.78° C | 98% | 914.1 hPa | 0 mm | - | - | - |
| 1778268260 | 18.33° C | 98% | 913.7 hPa | 0.76 mm | - | - | - |
| 1778268199 | 18.33° C | 98% | 913.8 hPa | 0.76 mm | - | - | - |
| 1778267901 | 18.33° C | 98% | 913.9 hPa | 0.51 mm | - | - | - |
| 1778267899 | 18.33° C | 98% | 914.1 hPa | 0.51 mm | - | - | - |
| 1778267599 | 18.33° C | 98% | 914.2 hPa | 0.25 mm | - | - | - |
| 1778267541 | 18.33° C | 98% | 914.2 hPa | 0.25 mm | - | - | - |
| 1778267299 | 18.33° C | 98% | 914.2 hPa | 0 mm | - | - | - |
| 1778267180 | 18.33° C | 98% | 913.7 hPa | 0 mm | - | - | - |
| 1778267000 | 18.33° C | 98% | 913.8 hPa | 2.79 mm | - | - | - |
| 1778266820 | 18.33° C | 98% | 914 hPa | 2.54 mm | - | - | - |
| 1778266699 | 18.33° C | 98% | 914 hPa | 2.29 mm | - | - | - |
| 1778266460 | 18.33° C | 98% | 914.1 hPa | 1.78 mm | - | - | - |
| 1778266399 | 18.33° C | 98% | 914 hPa | 1.78 mm | - | - | - |
| 1778266101 | 18.33° C | 98% | 914.1 hPa | 1.52 mm | - | - | - |
| 1778266099 | 18.33° C | 98% | 914.1 hPa | 1.52 mm | - | - | - |
| 1778265799 | 18.33° C | 98% | 914.4 hPa | 1.27 mm | - | - | - |
| 1778265740 | 18.33° C | 98% | 914.4 hPa | 1.27 mm | - | - | - |
| 1778265499 | 18.33° C | 98% | 914.2 hPa | 0.76 mm | - | - | - |
| 1778265380 | 18.33° C | 98% | 914.2 hPa | 0.76 mm | - | - | - |
| 1778265199 | 18.33° C | 98% | 914.3 hPa | 0.51 mm | - | - | - |
| 1778265020 | 18.33° C | 98% | 914.4 hPa | 0.51 mm | - | - | - |
| 1778264899 | 18.89° C | 98% | 914.2 hPa | 0.25 mm | - | - | - |
| 1778264660 | 18.89° C | 98% | 914.2 hPa | 0.25 mm | - | - | - |
| 1778264599 | 18.89° C | 98% | 914 hPa | 0.25 mm | - | - | - |
* Rain latest hour (hover to see other rain measurements)
** Current wind speed in m/s (hover to see current wind gust speed)